When you browse on this site, cookies collect data to enhance your experience and personalize the content and advertising you see.
Visit our Privacy Policy to learn more. By continuing to use the site, you agree to this use of cookies and data.

Hourly Weather Bielce

Today, 25 September, Friday

Time Temperature Precipitation Wind Pressure Humidity
00:00 +19°C° 0 mm 2 mps 748 mmHg 71%
01:00 +18°C° 0 mm 2 mps 748 mmHg 78%
02:00 +17°C° 0 mm 2 mps 748 mmHg 85%
03:00 +17°C° 0 mm 2 mps 748 mmHg 88%
04:00 +16°C° 0 mm 2 mps 748 mmHg 91%
05:00 +16°C° 0 mm 2 mps 747 mmHg 94%
06:00 +17°C° 0 mm 2 mps 747 mmHg 89%
07:00 +18°C° 0 mm 3 mps 747 mmHg 85%
08:00 +19°C° 0 mm 3 mps 747 mmHg 81%
09:00 +21°C° 0 mm 4 mps 747 mmHg 71%
10:00 +25°C° 0 mm 5 mps 746 mmHg 60%
11:00 +27°C° 0 mm 5 mps 746 mmHg 50%
12:00 +28°C° 0 mm 6 mps 746 mmHg 45%
13:00 +29°C° 0 mm 6 mps 745 mmHg 39%
14:00 +30°C° 0 mm 6 mps 745 mmHg 34%
15:00 +30°C° 0 mm 6 mps 744 mmHg 35%
16:00 +29°C° 0 mm 6 mps 744 mmHg 37%
17:00 +29°C° 0 mm 5 mps 743 mmHg 38%
18:00 +27°C° 0.1 mm 6 mps 744 mmHg 42%
19:00 +26°C° 0.1 mm 6 mps 744 mmHg 47%
20:00 +24°C° 0.1 mm 7 mps 744 mmHg 51%
21:00 +23°C° 0.1 mm 7 mps 744 mmHg 55%
22:00 +22°C° 0.1 mm 6 mps 744 mmHg 60%
23:00 +20°C° 0.1 mm 6 mps 743 mmHg 64%

Tomorrow, 26 September, Saturday

Time Temperature Precipitation Wind Pressure Humidity
00:00 +20°C° 0 mm 5 mps 743 mmHg 67%
01:00 +19°C° 0 mm 5 mps 743 mmHg 69%
02:00 +17°C° 0 mm 5 mps 742 mmHg 72%
03:00 +17°C° 0 mm 5 mps 742 mmHg 77%
04:00 +16°C° 0 mm 5 mps 742 mmHg 81%
05:00 +16°C° 0 mm 5 mps 742 mmHg 86%
06:00 +17°C° 0 mm 6 mps 742 mmHg 83%
07:00 +18°C° 0 mm 7 mps 742 mmHg 81%
08:00 +20°C° 0 mm 8 mps 741 mmHg 78%
09:00 +22°C° 0 mm 8 mps 741 mmHg 68%
10:00 +24°C° 0 mm 8 mps 741 mmHg 57%
11:00 +27°C° 0 mm 9 mps 741 mmHg 47%
12:00 +28°C° 0 mm 9 mps 740 mmHg 43%
13:00 +29°C° 0 mm 9 mps 739 mmHg 40%
14:00 +31°C° 0 mm 9 mps 739 mmHg 36%
15:00 +29°C° 0 mm 10 mps 738 mmHg 39%
16:00 +28°C° 0 mm 10 mps 738 mmHg 42%
17:00 +28°C° 0 mm 10 mps 737 mmHg 45%
18:00 +26°C° 0.5 mm 10 mps 737 mmHg 54%
19:00 +23°C° 0.5 mm 10 mps 738 mmHg 63%
20:00 +22°C° 0.5 mm 10 mps 738 mmHg 71%
21:00 +21°C° 1.3 mm 9 mps 738 mmHg 76%
22:00 +21°C° 1.3 mm 9 mps 738 mmHg 80%
23:00 +19°C° 1.3 mm 9 mps 738 mmHg 84%

Day after tomorrow, 27 September, Sunday

Time Temperature Precipitation Wind Pressure Humidity
00:00 +20°C° 2.6 mm 8 mps 737 mmHg 85%
01:00 +20°C° 2.6 mm 8 mps 737 mmHg 86%
02:00 +20°C° 2.6 mm 8 mps 737 mmHg 86%
03:00 +20°C° 0.8 mm 8 mps 737 mmHg 84%
04:00 +20°C° 0.8 mm 7 mps 737 mmHg 82%
05:00 +18°C° 0.8 mm 7 mps 737 mmHg 79%
06:00 +18°C° 0 mm 7 mps 738 mmHg 79%
07:00 +17°C° 0 mm 6 mps 739 mmHg 78%
08:00 +16°C° 0 mm 5 mps 739 mmHg 77%
09:00 +19°C° 0 mm 4 mps 740 mmHg 69%
10:00 +20°C° 0 mm 4 mps 741 mmHg 61%
11:00 +21°C° 0 mm 3 mps 742 mmHg 53%
12:00 +22°C° 0 mm 3 mps 743 mmHg 48%
13:00 +22°C° 0 mm 3 mps 743 mmHg 44%
14:00 +24°C° 0 mm 2 mps 744 mmHg 39%
15:00 +24°C° 0 mm 2 mps 744 mmHg 40%
16:00 +24°C° 0 mm 2 mps 744 mmHg 40%
17:00 +24°C° 0 mm 2 mps 745 mmHg 41%
18:00 +21°C° 0 mm 2 mps 745 mmHg 44%
19:00 +20°C° 0 mm 2 mps 746 mmHg 46%
20:00 +19°C° 0 mm 3 mps 746 mmHg 49%
21:00 +18°C° 0 mm 2 mps 747 mmHg 48%
22:00 +18°C° 0 mm 2 mps 747 mmHg 47%
23:00 +17°C° 0 mm 2 mps 747 mmHg 47%

28 September, Monday

Time Temperature Precipitation Wind Pressure Humidity
00:00 +17°C° 0 mm 2 mps 748 mmHg 46%
01:00 +16°C° 0 mm 2 mps 748 mmHg 46%
02:00 +16°C° 0 mm 3 mps 748 mmHg 45%
03:00 +15°C° 0 mm 2 mps 748 mmHg 46%
04:00 +15°C° 0 mm 2 mps 748 mmHg 47%
05:00 +14°C° 0 mm 2 mps 748 mmHg 48%
06:00 +15°C° 0 mm 2 mps 749 mmHg 48%
07:00 +16°C° 0 mm 1 mps 749 mmHg 48%
08:00 +18°C° 0 mm 1 mps 749 mmHg 48%
09:00 +20°C° 0 mm 1 mps 749 mmHg 45%
10:00 +21°C° 0 mm 1 mps 749 mmHg 41%
11:00 +23°C° 0 mm 1 mps 749 mmHg 38%
12:00 +24°C° 0 mm 1 mps 749 mmHg 35%
13:00 +25°C° 0 mm 1 mps 749 mmHg 33%
14:00 +26°C° 0 mm 1 mps 749 mmHg 31%
15:00 +25°C° 0 mm 1 mps 749 mmHg 32%
16:00 +25°C° 0 mm 1 mps 749 mmHg 34%
17:00 +24°C° 0 mm 1 mps 748 mmHg 36%
18:00 +23°C° 0 mm 1 mps 748 mmHg 37%
19:00 +21°C° 0 mm 2 mps 749 mmHg 39%
20:00 +19°C° 0 mm 2 mps 749 mmHg 40%
21:00 +19°C° 0 mm 2 mps 749 mmHg 42%
22:00 +18°C° 0 mm 2 mps 749 mmHg 44%
23:00 +18°C° 0 mm 3 mps 749 mmHg 47%

29 September, Tuesday

Time Temperature Precipitation Wind Pressure Humidity
00:00 +18°C° 0 mm 2 mps 748 mmHg 47%
01:00 +17°C° 0 mm 2 mps 748 mmHg 47%
02:00 +17°C° 0 mm 2 mps 748 mmHg 47%
03:00 +17°C° 0 mm 2 mps 747 mmHg 48%
04:00 +17°C° 0 mm 2 mps 747 mmHg 48%
05:00 +18°C° 0 mm 1 mps 747 mmHg 49%
06:00 +18°C° 0.2 mm 1 mps 747 mmHg 54%
07:00 +16°C° 0.2 mm 1 mps 747 mmHg 60%
08:00 +16°C° 0.2 mm 2 mps 747 mmHg 66%
09:00 +16°C° 0.1 mm 2 mps 746 mmHg 66%
10:00 +16°C° 0.1 mm 2 mps 746 mmHg 66%
11:00 +17°C° 0.1 mm 3 mps 746 mmHg 66%
12:00 +15°C° 1.5 mm 4 mps 745 mmHg 73%
13:00 +15°C° 1.5 mm 4 mps 745 mmHg 79%
14:00 +14°C° 1.5 mm 5 mps 745 mmHg 85%
15:00 +14°C° 5.6 mm 5 mps 744 mmHg 87%
16:00 +14°C° 5.6 mm 6 mps 744 mmHg 90%
17:00 +14°C° 5.6 mm 6 mps 744 mmHg 93%
18:00 +14°C° 1.3 mm 6 mps 744 mmHg 92%
19:00 +14°C° 1.3 mm 5 mps 745 mmHg 91%
20:00 +14°C° 1.3 mm 5 mps 745 mmHg 90%
21:00 +14°C° 0.1 mm 5 mps 745 mmHg 88%
22:00 +14°C° 0.1 mm 6 mps 745 mmHg 86%
23:00 +14°C° 0.1 mm 6 mps 745 mmHg 83%

30 September, Wednesday

Time Temperature Precipitation Wind Pressure Humidity
00:00 +13°C° 0 mm 6 mps 745 mmHg 84%
01:00 +11°C° 0 mm 7 mps 745 mmHg 84%
02:00 +11°C° 0 mm 8 mps 745 mmHg 84%
03:00 +11°C° 0 mm 8 mps 745 mmHg 83%
04:00 +11°C° 0 mm 8 mps 745 mmHg 83%
05:00 +11°C° 0 mm 9 mps 745 mmHg 82%
06:00 +11°C° 0 mm 9 mps 745 mmHg 80%
07:00 +11°C° 0 mm 10 mps 745 mmHg 78%
08:00 +11°C° 0 mm 10 mps 745 mmHg 76%
09:00 +11°C° 0 mm 10 mps 745 mmHg 73%
10:00 +12°C° 0 mm 10 mps 744 mmHg 71%
11:00 +12°C° 0 mm 10 mps 744 mmHg 68%
12:00 +13°C° 0 mm 10 mps 744 mmHg 66%
13:00 +13°C° 0 mm 9 mps 744 mmHg 64%
14:00 +15°C° 0 mm 9 mps 744 mmHg 62%
15:00 +15°C° 0 mm 9 mps 744 mmHg 63%
16:00 +15°C° 0 mm 8 mps 743 mmHg 64%
17:00 +13°C° 0 mm 8 mps 743 mmHg 65%
18:00 +13°C° 0.4 mm 8 mps 743 mmHg 68%
19:00 +13°C° 0.4 mm 8 mps 743 mmHg 71%
20:00 +13°C° 0.4 mm 8 mps 743 mmHg 74%
21:00 +12°C° 0.6 mm 9 mps 743 mmHg 77%
22:00 +12°C° 0.6 mm 9 mps 743 mmHg 80%
23:00 +12°C° 0.6 mm 10 mps 743 mmHg 83%
Show more